LAN120 SKBO-SKCL

Flight info

Callsign LAN120
Flight time 0h 31m
Altitude 24000
Route VAPOM4R OREGA OREGA5A
Aircraft A320/M-SDE3FGHIRWY/LB1

Departure

Time 2026-04-20 20:19
Airport El Dorado International Airport (SKBO)

Arrival

Time 2026-04-20 20:51
Airport Alfonso Bonilla Aragon International Airport (SKCL)
Time Latitude Longitude Altitude Speed Heading
2026-04-20 19:52 4.69802 -74.14552 8365 ft 0 kts 37°
2026-04-20 20:09 4.69794 -74.14559 8365 ft 4 kts 33°
2026-04-20 20:10 4.69770 -74.14571 8365 ft 4 kts 16°
2026-04-20 20:10 4.69745 -74.14573 8365 ft 4 kts 335°
2026-04-20 20:10 4.69734 -74.14565 8365 ft 1 kts 307°
2026-04-20 20:10 4.69733 -74.14563 8365 ft 0 kts 307°
2026-04-20 20:13 4.69742 -74.14576 8365 ft 7 kts 307°
2026-04-20 20:13 4.69790 -74.14638 8365 ft 14 kts 308°
2026-04-20 20:13 4.69841 -74.14708 8365 ft 11 kts 297°
2026-04-20 20:13 4.69817 -74.14760 8365 ft 8 kts 218°
2026-04-20 20:14 4.69748 -74.14804 8364 ft 13 kts 191°
2026-04-20 20:14 4.69675 -74.14744 8364 ft 16 kts 126°
2026-04-20 20:14 4.69608 -74.14656 8364 ft 14 kts 127°
2026-04-20 20:14 4.69557 -74.14588 8364 ft 14 kts 127°
2026-04-20 20:15 4.69473 -74.14478 8364 ft 24 kts 127°
2026-04-20 20:15 4.69373 -74.14345 8364 ft 23 kts 127°
2026-04-20 20:15 4.69278 -74.14217 8365 ft 22 kts 127°
2026-04-20 20:15 4.69201 -74.14115 8365 ft 14 kts 127°
2026-04-20 20:16 4.69137 -74.14077 8365 ft 10 kts 196°
2026-04-20 20:16 4.69086 -74.14112 8365 ft 4 kts 217°
2026-04-20 20:16 4.69085 -74.14113 8365 ft 0 kts 217°
2026-04-20 20:18 4.69080 -74.14117 8365 ft 4 kts 217°
2026-04-20 20:18 4.69034 -74.14152 8365 ft 11 kts 220°
2026-04-20 20:18 4.69017 -74.14230 8365 ft 13 kts 294°
2026-04-20 20:18 4.69073 -74.14308 8365 ft 18 kts 307°
2026-04-20 20:19 4.69277 -74.14576 8363 ft 82 kts 307°
2026-04-20 20:19 4.69743 -74.15192 8365 ft 138 kts 307°
2026-04-20 20:19 4.70422 -74.16091 8369 ft 184 kts 307°
2026-04-20 20:19 4.71207 -74.17124 9086 ft 184 kts 305°
2026-04-20 20:20 4.71980 -74.18154 9680 ft 190 kts 306°
2026-04-20 20:20 4.72815 -74.19284 9764 ft 212 kts 303°
2026-04-20 20:20 4.73451 -74.20672 10024 ft 228 kts 290°
2026-04-20 20:20 4.73943 -74.22261 10239 ft 249 kts 286°
2026-04-20 20:21 4.74402 -74.24011 10467 ft 271 kts 284°
2026-04-20 20:21 4.74816 -74.25902 10658 ft 293 kts 277°
2026-04-20 20:21 4.74713 -74.28020 10793 ft 318 kts 262°
2026-04-20 20:21 4.74288 -74.30278 10908 ft 341 kts 258°
2026-04-20 20:22 4.73723 -74.32667 10999 ft 363 kts 257°
2026-04-20 20:22 4.73105 -74.35167 11339 ft 374 kts 256°
2026-04-20 20:22 4.72496 -74.37727 11772 ft 381 kts 258°
2026-04-20 20:22 4.71916 -74.40330 12306 ft 384 kts 258°
2026-04-20 20:23 4.71258 -74.42938 12852 ft 388 kts 249°
2026-04-20 20:23 4.69846 -74.45252 13384 ft 393 kts 231°
2026-04-20 20:23 4.67909 -74.47200 13930 ft 396 kts 221°
2026-04-20 20:23 4.65942 -74.49146 14410 ft 399 kts 228°
2026-04-20 20:24 4.64149 -74.51275 14867 ft 401 kts 232°
2026-04-20 20:24 4.62449 -74.53510 15376 ft 404 kts 233°
2026-04-20 20:24 4.60783 -74.55790 15877 ft 407 kts 234°
2026-04-20 20:24 4.59098 -74.58085 16383 ft 410 kts 233°
2026-04-20 20:25 4.57377 -74.60375 16877 ft 413 kts 233°
2026-04-20 20:25 4.55614 -74.62662 17364 ft 416 kts 232°
2026-04-20 20:25 4.53817 -74.64947 17826 ft 419 kts 231°
2026-04-20 20:25 4.51996 -74.67240 18275 ft 422 kts 231°
2026-04-20 20:26 4.50159 -74.69543 18677 ft 424 kts 231°
2026-04-20 20:26 4.48317 -74.71861 19088 ft 426 kts 231°
2026-04-20 20:26 4.46473 -74.74190 19478 ft 428 kts 231°
2026-04-20 20:26 4.44622 -74.76537 19871 ft 430 kts 231°
2026-04-20 20:27 4.42765 -74.78890 20258 ft 432 kts 231°
2026-04-20 20:27 4.40897 -74.81256 20608 ft 434 kts 231°
2026-04-20 20:27 4.39026 -74.83632 20983 ft 435 kts 231°
2026-04-20 20:27 4.37145 -74.86019 21328 ft 438 kts 231°
2026-04-20 20:28 4.35250 -74.88419 21663 ft 440 kts 231°
2026-04-20 20:28 4.33347 -74.90825 21985 ft 442 kts 231°
2026-04-20 20:28 4.31430 -74.93249 22309 ft 444 kts 231°
2026-04-20 20:28 4.29510 -74.95683 22621 ft 446 kts 231°
2026-04-20 20:29 4.27582 -74.98129 22927 ft 448 kts 231°
2026-04-20 20:29 4.25647 -75.00583 23300 ft 450 kts 231°
2026-04-20 20:29 4.23726 -75.03015 23561 ft 452 kts 231°
2026-04-20 20:29 4.21773 -75.05488 23746 ft 453 kts 231°
2026-04-20 20:30 4.19816 -75.07966 23878 ft 454 kts 231°
2026-04-20 20:30 4.17843 -75.10465 23913 ft 461 kts 231°
2026-04-20 20:30 4.15841 -75.12999 23913 ft 467 kts 231°
2026-04-20 20:30 4.13814 -75.15564 23912 ft 471 kts 231°
2026-04-20 20:31 4.11775 -75.18145 23900 ft 473 kts 231°
2026-04-20 20:31 4.09735 -75.20731 23896 ft 473 kts 231°
2026-04-20 20:31 4.07692 -75.23318 23933 ft 473 kts 231°
2026-04-20 20:31 4.05649 -75.25900 23931 ft 473 kts 231°
2026-04-20 20:32 4.03603 -75.28486 23934 ft 473 kts 231°
2026-04-20 20:32 4.01557 -75.31068 23934 ft 473 kts 231°
2026-04-20 20:32 3.99512 -75.33651 23934 ft 474 kts 231°
2026-04-20 20:32 3.97467 -75.36238 23954 ft 474 kts 231°
2026-04-20 20:33 3.95425 -75.38826 23959 ft 474 kts 231°
2026-04-20 20:33 3.93384 -75.41413 23959 ft 473 kts 231°
2026-04-20 20:33 3.91341 -75.43998 23958 ft 473 kts 231°
2026-04-20 20:33 3.89294 -75.46585 23958 ft 473 kts 231°
2026-04-20 20:34 3.87313 -75.49213 23955 ft 473 kts 236°
2026-04-20 20:34 3.85710 -75.52092 24018 ft 474 kts 244°
2026-04-20 20:34 3.84312 -75.55079 24021 ft 474 kts 244°
2026-04-20 20:34 3.82909 -75.58061 23996 ft 474 kts 244°
2026-04-20 20:35 3.81498 -75.61046 23994 ft 474 kts 244°
2026-04-20 20:35 3.80086 -75.64030 23995 ft 474 kts 244°
2026-04-20 20:35 3.78674 -75.67012 24049 ft 474 kts 244°
2026-04-20 20:35 3.77263 -75.69997 24050 ft 474 kts 244°
2026-04-20 20:36 3.75852 -75.72983 24051 ft 474 kts 244°
2026-04-20 20:36 3.74440 -75.75971 24053 ft 474 kts 244°
2026-04-20 20:36 3.73048 -75.78919 24088 ft 474 kts 244°
2026-04-20 20:36 3.71621 -75.81942 24096 ft 474 kts 244°
2026-04-20 20:37 3.70212 -75.84925 24102 ft 474 kts 244°
2026-04-20 20:37 3.68803 -75.87905 24099 ft 473 kts 244°
2026-04-20 20:37 3.67393 -75.90879 24071 ft 471 kts 244°
2026-04-20 20:37 3.66013 -75.93792 23855 ft 454 kts 244°
2026-04-20 20:38 3.64704 -75.96565 23640 ft 439 kts 244°
2026-04-20 20:38 3.63410 -75.99312 23475 ft 421 kts 244°
2026-04-20 20:38 3.62199 -76.01877 23338 ft 394 kts 244°
2026-04-20 20:38 3.61063 -76.04281 23120 ft 371 kts 244°
2026-04-20 20:39 3.59991 -76.06545 22545 ft 361 kts 244°
2026-04-20 20:39 3.58924 -76.08800 21805 ft 356 kts 244°
2026-04-20 20:39 3.57876 -76.11020 21110 ft 351 kts 244°
2026-04-20 20:39 3.56842 -76.13212 20440 ft 346 kts 244°
2026-04-20 20:40 3.55822 -76.15381 19738 ft 343 kts 244°
2026-04-20 20:40 3.54807 -76.17535 19070 ft 341 kts 244°
2026-04-20 20:40 3.53799 -76.19668 18429 ft 338 kts 245°
2026-04-20 20:40 3.52798 -76.21782 17725 ft 334 kts 245°
2026-04-20 20:41 3.51808 -76.23873 17032 ft 331 kts 245°
2026-04-20 20:41 3.50813 -76.25938 16362 ft 328 kts 241°
2026-04-20 20:41 3.49433 -76.27720 15741 ft 324 kts 222°
2026-04-20 20:41 3.47559 -76.28928 15130 ft 321 kts 202°
2026-04-20 20:42 3.45416 -76.29531 14516 ft 320 kts 193°
2026-04-20 20:42 3.43252 -76.30014 13901 ft 318 kts 193°
2026-04-20 20:42 3.41100 -76.30489 13239 ft 315 kts 193°
2026-04-20 20:42 3.38970 -76.30956 12580 ft 312 kts 193°
2026-04-20 20:43 3.36860 -76.31422 11940 ft 309 kts 193°
2026-04-20 20:43 3.34915 -76.32241 11314 ft 302 kts 220°
2026-04-20 20:43 3.33670 -76.33883 10686 ft 297 kts 251°
2026-04-20 20:43 3.33279 -76.35893 10031 ft 295 kts 261°
2026-04-20 20:44 3.32902 -76.37892 9556 ft 285 kts 258°
2026-04-20 20:44 3.32507 -76.39765 9383 ft 266 kts 258°
2026-04-20 20:44 3.32129 -76.41537 9073 ft 254 kts 258°
2026-04-20 20:44 3.31772 -76.43205 8945 ft 236 kts 258°
2026-04-20 20:45 3.31591 -76.44777 8717 ft 222 kts 279°
2026-04-20 20:45 3.32121 -76.46187 8302 ft 216 kts 300°
2026-04-20 20:45 3.33053 -76.47351 7797 ft 215 kts 326°
2026-04-20 20:45 3.34446 -76.47796 7323 ft 212 kts
2026-04-20 20:46 3.35794 -76.47337 6990 ft 203 kts 37°
2026-04-20 20:46 3.36577 -76.46199 6526 ft 201 kts 75°
2026-04-20 20:46 3.36705 -76.44810 6016 ft 201 kts 85°
2026-04-20 20:46 3.36882 -76.43487 5856 ft 184 kts 75°
2026-04-20 20:47 3.37375 -76.42382 5728 ft 165 kts 56°
2026-04-20 20:47 3.38098 -76.41550 5464 ft 155 kts 39°
2026-04-20 20:47 3.38996 -76.40967 5157 ft 153 kts 24°
2026-04-20 20:47 3.40002 -76.40654 4991 ft 151 kts
2026-04-20 20:48 3.41042 -76.40475 4965 ft 152 kts
2026-04-20 20:48 3.42088 -76.40292 4976 ft 153 kts
2026-04-20 20:48 3.43137 -76.40110 4959 ft 153 kts
2026-04-20 20:48 3.44189 -76.39927 4854 ft 153 kts
2026-04-20 20:49 3.45235 -76.39745 4693 ft 151 kts
2026-04-20 20:49 3.46267 -76.39566 4498 ft 149 kts
2026-04-20 20:49 3.47292 -76.39390 4316 ft 150 kts
2026-04-20 20:49 3.48321 -76.39213 4102 ft 151 kts
2026-04-20 20:50 3.49347 -76.39033 3890 ft 149 kts
2026-04-20 20:50 3.50372 -76.38855 3722 ft 148 kts
2026-04-20 20:50 3.51385 -76.38679 3496 ft 148 kts
2026-04-20 20:50 3.52397 -76.38504 3291 ft 149 kts
2026-04-20 20:51 3.53414 -76.38325 3165 ft 143 kts
2026-04-20 20:51 3.54237 -76.38186 3166 ft 83 kts
2026-04-20 20:51 3.54538 -76.38134 3167 ft 16 kts
2026-04-20 20:51 3.54599 -76.38188 3165 ft 14 kts 283°
2026-04-20 20:52 3.54586 -76.38275 3165 ft 14 kts 224°
2026-04-20 20:52 3.54528 -76.38297 3165 ft 13 kts 191°
2026-04-20 20:52 3.54438 -76.38313 3165 ft 13 kts 189°
2026-04-20 20:52 3.54262 -76.38346 3166 ft 27 kts 190°
2026-04-20 20:53 3.54141 -76.38368 3164 ft 25 kts 192°
2026-04-20 20:53 3.53995 -76.38458 3163 ft 25 kts 219°
2026-04-20 20:53 3.53864 -76.38566 3162 ft 18 kts 219°
2026-04-20 20:53 3.53775 -76.38587 3162 ft 12 kts 205°
2026-04-20 20:54 3.53738 -76.38623 3162 ft 2 kts 229°
2026-04-20 20:54 3.53732 -76.38631 3162 ft 1 kts 229°
2026-04-20 20:54 3.53728 -76.38635 3162 ft 1 kts 229°
2026-04-20 20:54 3.53727 -76.38636 3162 ft 1 kts 229°